x

8768094 - Calcasieu Pass, La (capl1) Weather Station

6:54pm - Thu 5th May 2016 All times are CDT. -5 hours from GMT.

  • Wind
    13mph, 15mph gusts
  • Sea Temp 76°f
  • Sea Pressure 1012.4mb
  • 8768094 - Calcasieu Pass, La
  • 8768094 - Calcasieu Pass, La

More Historic Weather Station data

Upgrade to MSW Pro to gain access to the past 30 days of data for over 8000 Wavebouys and Weather Stations around the globe.

Join Pro

Comparision Forecast

View Surf forecast
   
Thu 05/05 6:54pm 13 15 mph 1012.4mb 76f -
6:48pm  -  mph 1012.4mb - -
6:42pm  -  mph 1012.4mb - -
6:36pm  -  mph 1012.4mb - -
6:30pm 11 15 mph 1012.5mb 76f -
6:24pm 14 15 mph 1012.5mb 76f -
6:18pm  -  mph 1012.5mb 76f 79f
6:12pm  -  mph 1012.5mb 77f 79f
6:06pm  -  mph 1012.5mb 77f 79f
6:00pm  -  mph 1012.5mb 77f -
5:54pm  -  mph 1012.5mb 77f -
5:48pm  -  mph - 77f -
5:42pm  -  mph - 78f -
5:36pm  -  mph - 77f -
5:30pm 11 16 mph 1012.6mb 77f 79f
5:24pm 15 17 mph 1012.6mb 76f 79f
5:18pm  -  mph 1012.6mb 76f 79f
5:12pm  -  mph 1012.6mb 76f 79f
5:06pm  -  mph 1012.6mb 76f 78f
5:00pm 11 16 mph 1012.7mb 76f -
4:54pm 9 17 mph 1012.7mb 76f -
4:48pm  -  mph 1012.7mb 76f 78f
4:42pm  -  mph 1012.7mb 76f 78f
4:36pm  -  mph 1012.7mb 76f 78f
4:30pm 11 17 mph 1012.7mb 76f 78f
4:24pm 11 14 mph 1012.7mb 76f 78f
4:18pm 10 13 mph 1012.8mb 76f 78f
4:12pm 11 15 mph 1012.9mb 76f 78f
4:06pm 9 16 mph 1013.1mb 76f 78f
4:00pm 10 14 mph 1013.1mb 76f 78f
3:54pm 10 15 mph 1013.1mb 76f 78f
3:48pm 11 17 mph 1013.3mb 76f 78f
3:42pm 11 15 mph 1013.4mb 76f 78f
3:36pm 14 16 mph 1013.5mb 76f 78f
3:30pm 9 16 mph 1013.6mb 76f 77f
3:24pm 14 16 mph 1013.7mb 76f 77f
3:18pm 9 13 mph 1013.8mb 76f 77f
3:12pm 11 15 mph 1013.9mb 76f 77f
3:06pm 11 15 mph 1013.9mb 76f 77f
3:00pm 13 16 mph 1014mb 76f 77f
2:54pm 13 16 mph 1014.1mb 76f 77f
2:48pm 13 15 mph 1014.2mb 76f 77f
2:42pm 10 15 mph 1014.3mb 76f 77f
2:36pm 13 16 mph 1014.3mb 76f 77f
2:30pm 9 15 mph 1014.4mb 76f 76f
2:24pm 10 15 mph 1014.4mb 75f 76f
2:18pm 10 16 mph 1014.4mb 75f 76f
2:12pm 10 15 mph 1014.4mb 75f 76f
2:06pm 10 15 mph 1014.4mb 75f 76f
2:00pm 11 15 mph 1014.4mb 75f 76f
1:54pm 10 15 mph 1014.5mb 75f 76f
1:48pm 9 13 mph 1014.6mb 75f 76f
1:42pm 9 13 mph 1014.6mb 75f 76f
1:36pm 7 14 mph 1014.7mb 75f 75f
1:30pm 8 15 mph 1014.7mb 75f 75f
1:24pm 14 15 mph 1014.6mb 75f 76f
1:18pm 8 16 mph 1014.7mb 75f 75f
1:12pm 10 14 mph 1014.8mb 75f 76f
1:06pm 9 14 mph 1014.9mb 75f 75f
1:00pm  -  mph 1014.9mb 75f 75f
12:54pm  -  mph 1015mb 75f 75f
12:48pm 10 13 mph 1015mb 75f 75f
12:42pm 8 13 mph 1015mb 75f 75f
12:36pm 8 13 mph 1015.1mb 75f 75f
12:30pm 7 11 mph 1015.2mb 74f 74f
12:24pm 9 11 mph 1015.3mb 74f 74f
12:18pm 10 14 mph 1015.3mb 74f 74f
12:12pm 9 13 mph 1015.4mb 74f 74f
12:06pm 8 11 mph 1015.4mb 74f 74f
12:00pm 10 11 mph 1015.5mb 74f 74f
11:54am 9 13 mph 1015.5mb 74f 73f
11:48am 10 13 mph 1015.5mb 74f 73f
11:42am 10 13 mph 1015.5mb 74f 73f
11:36am 8 13 mph 1015.5mb 74f 73f
11:30am 10 13 mph 1015.5mb 74f 73f
11:24am 7 10 mph 1015.5mb 74f 73f
11:18am 9 11 mph 1015.5mb 74f 73f
11:12am 9 13 mph 1015.5mb 74f 72f
11:06am 9 13 mph 1015.6mb 74f 73f
11:00am 10 13 mph 1015.5mb 74f 72f
10:54am 8 10 mph 1015.5mb 74f 73f
10:48am 9 11 mph 1015.5mb 74f 72f
10:42am 9 10 mph 1015.5mb 74f 72f
10:36am 9 13 mph 1015.5mb 74f 72f
10:30am 10 13 mph 1015.6mb 74f 71f
10:24am 9 11 mph 1015.5mb 74f 71f
10:18am 9 13 mph 1015.5mb 74f 71f
10:12am 10 13 mph 1015.5mb 74f 71f
10:06am 9 13 mph 1015.5mb 74f 71f
10:00am 9 14 mph 1015.4mb 74f 71f
9:54am 9 13 mph 1015.3mb 74f 71f
9:48am 10 15 mph 1015.4mb 74f 70f
9:42am 11 14 mph 1015.4mb 74f 70f
9:36am 11 14 mph 1015.3mb 75f 70f
9:30am 11 16 mph 1015.3mb 75f 70f
9:24am 14 16 mph 1015.2mb 75f 70f
9:18am 11 15 mph 1015.2mb 75f 70f
9:12am 13 16 mph 1015.2mb 75f 69f
9:06am 14 16 mph 1015.2mb 75f 69f
9:00am 13 16 mph 1015.2mb 75f 70f
8:54am 11 15 mph 1015.1mb 75f 70f
8:48am 13 15 mph 1015mb 75f -
8:42am 11 14 mph 1015mb 75f -
8:36am 10 13 mph 1014.9mb 75f -
8:30am 11 13 mph 1014.9mb 75f 69f
8:24am 11 13 mph 1014.9mb 75f 69f
8:18am 11 14 mph 1014.8mb 75f 69f
8:12am 9 14 mph 1014.8mb 75f 69f
8:06am 9 13 mph 1014.8mb 74f 68f
8:00am 10 15 mph 1014.7mb 74f 68f
7:54am 11 15 mph 1014.6mb 75f 68f
7:48am 13 15 mph 1014.6mb 74f 68f
7:42am 11 15 mph 1014.5mb 74f 68f
7:36am 13 14 mph 1014.5mb 74f 68f
7:30am 11 15 mph 1014.4mb 74f 68f
7:24am 13 15 mph 1014.3mb 74f 68f
7:18am 10 13 mph 1014.2mb 74f 68f
7:12am 10 13 mph 1014.2mb 74f 68f
7:06am 10 11 mph 1014.1mb 74f 68f
7:00am 8 10 mph 1014.1mb 74f 68f
6:54am 8 10 mph 1014.1mb 74f 67f
6:48am 8 9 mph 1014.1mb 74f 67f
6:42am 7 9 mph 1014.1mb 74f 67f
6:36am 7 9 mph 1014mb 74f 67f
6:30am 8 10 mph 1014mb 74f 67f
6:24am 8 10 mph 1014mb 74f 67f
6:18am 9 13 mph 1013.9mb 74f 67f
6:12am 10 11 mph 1013.9mb 74f 68f
6:06am 8 10 mph 1013.8mb 74f 68f
6:00am 8 11 mph 1013.8mb 74f 68f
5:54am 9 11 mph 1013.7mb 74f 68f
5:48am 10 13 mph 1013.6mb 74f 68f
5:42am 9 10 mph 1013.6mb 74f 69f
5:36am 9 10 mph 1013.5mb 74f 69f
5:30am 6 8 mph 1013.5mb 74f 69f
5:24am 7 8 mph 1013.3mb 74f 69f
5:18am 7 8 mph 1013.3mb 74f 69f
5:12am 8 10 mph 1013.2mb 74f 69f
5:06am 8 9 mph 1013.2mb 74f 69f
5:00am 7 9 mph 1013.2mb 74f 68f
4:54am 7 9 mph 1013.1mb 74f 69f
4:48am 8 9 mph 1013mb 74f 69f
4:42am 8 10 mph 1013mb 75f 69f
4:36am 8 10 mph 1013mb 74f 69f
4:30am 8 9 mph 1013mb 75f 69f
4:24am 8 10 mph 1013mb 75f 69f
4:18am 7 8 mph 1012.9mb 75f 69f
4:12am 7 8 mph 1012.9mb 75f 69f
4:06am 7 9 mph 1012.8mb 75f 69f
4:00am 7 9 mph 1012.8mb 75f 69f
3:54am 7 9 mph 1012.7mb 75f 69f
3:48am 7 8 mph 1012.7mb 75f 69f
3:42am 8 10 mph 1012.7mb 75f 69f
3:36am 8 10 mph 1012.7mb 75f 69f
3:30am 8 9 mph 1012.7mb 75f 69f
3:24am 8 9 mph 1012.7mb 75f 69f
3:18am 8 9 mph 1012.7mb 75f 70f
3:12am 8 9 mph 1012.7mb 75f 70f
3:06am 7 9 mph 1012.6mb 75f 70f
3:00am  -  mph 1012.6mb 75f 70f
2:54am  -  mph 1012.7mb 75f 70f
2:48am 8 9 mph 1012.8mb 75f 70f
2:42am 8 9 mph 1012.7mb 75f 70f
2:36am 8 9 mph 1012.7mb 75f 70f
2:30am 7 8 mph 1012.7mb 75f 70f
2:24am 7 9 mph 1012.7mb 75f 69f
2:18am 8 9 mph 1012.7mb 75f 70f
2:12am 7 8 mph 1012.8mb 75f 70f
2:06am 7 9 mph 1012.8mb 75f 70f
2:00am 8 9 mph 1012.8mb 75f 70f
1:54am 8
mph
1012.9mb 75f 70f
1:48am 8 9 mph 1012.9mb 75f 70f
1:42am 8 9 mph 1012.9mb 75f 70f
1:36am 8 9 mph 1012.9mb 75f 71f
1:30am 7 8 mph 1012.9mb 75f 70f
1:24am 7 8 mph 1013mb 75f 70f
1:18am 7 8 mph 1012.9mb 75f 70f
1:12am 7 8 mph 1013mb 75f 71f
1:06am 7 8 mph 1013.1mb 75f 71f
1:00am 7 8 mph 1013.1mb 75f 71f
12:54am 7 8 mph 1013.2mb 75f 71f
12:48am  -  mph 1013.2mb 75f 71f
12:42am  -  mph 1013.3mb 75f 71f
12:36am  -  mph 1013.4mb 75f 71f
12:30am 7 8 mph 1013.4mb 75f 72f
12:24am 7 9 mph 1013.4mb 75f 72f
12:18am 8 9 mph 1013.4mb 75f 72f
12:12am 7 9 mph 1013.4mb 75f 72f
12:06am 7 9 mph 1013.4mb 75f 72f
12:00am 7 9 mph 1013.4mb 75f 72f
Wed 05/04 11:54pm 8 10 mph 1013.4mb 75f 72f
11:48pm 8 9 mph 1013.4mb 75f 72f
11:42pm 8 9 mph 1013.3mb 75f 72f
11:36pm 8
mph
1013.3mb 75f 71f
11:30pm 8 9 mph 1013.3mb 75f 72f
11:24pm 8 9 mph 1013.3mb 75f 72f
11:18pm 8 9 mph 1013.3mb 75f 71f
11:12pm 7 8 mph 1013.3mb 75f 72f
11:06pm 7 8 mph 1013.2mb 75f 72f
11:00pm 7 8 mph 1013.2mb 75f 72f
10:54pm 7 8 mph 1013.2mb 75f 72f
10:48pm  -  mph 1013.2mb 75f 72f
10:42pm  -  mph 1013.2mb 75f 73f
10:36pm  -  mph 1013.1mb 75f 73f
10:30pm 7 8 mph 1013.1mb 75f 73f
10:24pm 7 8 mph 1013.1mb 75f 73f
10:18pm 7 8 mph 1013.1mb 75f 73f
10:12pm 7 9 mph 1013.1mb 75f 73f
10:06pm 7 8 mph 1013.1mb 75f 73f
10:00pm  -  mph 1013mb 75f -
9:54pm  -  mph 1013mb 75f -
9:48pm 8 9 mph 1013mb 75f -
9:42pm 8 9 mph 1013mb 75f -
9:36pm 7 9 mph 1012.9mb 75f -
9:30pm 8 10 mph 1012.9mb 75f 73f
9:24pm 8 9 mph 1012.9mb 75f 73f
9:18pm  -  mph 1012.9mb 75f 73f
9:12pm  -  mph 1012.8mb 75f 73f
9:06pm  -  mph 1012.8mb 75f 73f
9:00pm  -  mph 1012.7mb 75f 74f
8:54pm  -  mph 1012.7mb 75f 74f
8:48pm  -  mph 1012.6mb 75f -
8:42pm  -  mph 1012.5mb 75f -
8:36pm  -  mph 1012.5mb 75f -
8:30pm 7 8 mph 1012.4mb 75f -
8:24pm 6 8 mph 1012.3mb 75f -
8:18pm  -  mph 1012.3mb 75f 75f
8:12pm  -  mph 1012.3mb 75f 75f
8:06pm  -  mph 1012.3mb 75f 75f
8:00pm  -  mph 1012.4mb 75f -
7:54pm  -  mph 1012.4mb 75f -
7:48pm 7 10 mph 1012.4mb 75f -
7:42pm 8 10 mph 1012.4mb 75f -
7:36pm 9 13 mph 1012.4mb 75f -
7:30pm 8 10 mph 1012.4mb 75f -
7:24pm 8 9 mph 1012.4mb 75f -
7:18pm  -  mph 1012.4mb 75f 78f
7:12pm  -  mph 1012.4mb 75f 78f
7:06pm  -  mph 1012.3mb 75f 79f
7:00pm  -  mph 1012.3mb 76f 78f
6:54pm  -  mph 1012.3mb 76f 79f
6:48pm  -  mph - 76f -
6:42pm  -  mph - 76f -
6:36pm  -  mph - 76f -
6:30pm  -  mph 1012.3mb - -
6:24pm  -  mph 1012.3mb - -
6:18pm 13 16 mph 1012.3mb 77f -
6:12pm 13 16 mph 1012.3mb 76f -
6:06pm 11 16 mph 1012.4mb 76f -
6:00pm  -  mph 1012.4mb 76f -
5:54pm  -  mph 1012.4mb 76f -
5:48pm  -  mph - 76f -
5:42pm  -  mph - 76f -
5:36pm  -  mph - 76f -
5:30pm 13 16 mph 1012.6mb 76f 78f
5:24pm 11 14 mph 1012.6mb 76f 78f
5:18pm  -  mph 1012.6mb 76f 78f
5:12pm  -  mph 1012.7mb 77f 78f
5:06pm  -  mph 1012.7mb 77f 78f
5:00pm  -  mph 1012.7mb 77f 77f
4:54pm  -  mph 1012.7mb 77f 77f
4:48pm  -  mph 1012.8mb 77f 77f
4:42pm  -  mph 1012.8mb 77f 77f
4:36pm  -  mph 1012.9mb 77f 77f
4:30pm 15 18 mph 1013mb 77f 77f
4:24pm 11 17 mph 1013mb 77f 76f
4:18pm 13 15 mph 1013.1mb 77f 76f
4:12pm 10 14 mph 1013.2mb 76f 76f
4:06pm 15 18 mph 1013.3mb 76f 76f
4:00pm 13 18 mph 1013.4mb 76f 76f
3:54pm 13 18 mph 1013.4mb 76f 76f
3:48pm 11 17 mph 1013.5mb 76f 76f
3:42pm 10 15 mph 1013.6mb 76f 76f
3:36pm 9 13 mph 1013.7mb 76f 75f
3:30pm 13 15 mph 1013.8mb 76f 75f
3:24pm 10 16 mph 1013.9mb 76f 75f
3:18pm 13 17 mph 1013.9mb 76f 75f
3:12pm 15 16 mph 1014mb 76f 75f
3:06pm 9 14 mph 1014.1mb 76f 74f
3:00pm 13 17 mph 1014.2mb 76f 74f
2:54pm 11 15 mph 1014.2mb 76f 74f
2:48pm 13 16 mph 1014.3mb 76f 74f
2:42pm 11 15 mph 1014.3mb 76f 74f
2:36pm 10 16 mph 1014.3mb 76f 74f
2:30pm 10 13 mph 1014.4mb 75f 74f
2:24pm 8 13 mph 1014.5mb 76f 73f
2:18pm 10 15 mph 1014.6mb 75f 73f
2:12pm 11 15 mph 1014.7mb 75f 73f
2:06pm 8 11 mph 1014.8mb 75f 73f
2:00pm 10 14 mph 1014.9mb 75f 73f
1:54pm 10 14 mph 1014.9mb 75f 73f
1:48pm 13 17 mph 1015mb 75f 73f
1:42pm 10 13 mph 1015.1mb 75f 73f
1:36pm 10 16 mph 1015.1mb 75f 72f
1:30pm 14 16 mph 1015.2mb 75f 72f
1:24pm 9 15 mph 1015.3mb 75f 72f
1:18pm 13 16 mph 1015.4mb 75f 72f
1:12pm 11 16 mph 1015.4mb 75f 72f
1:06pm 8 15 mph 1015.5mb 75f 71f
1:00pm 11 14 mph 1015.6mb 75f 71f
12:54pm 10 17 mph 1015.7mb 76f 71f
12:48pm 13 17 mph 1015.8mb 76f 71f
12:42pm 11 14 mph 1016mb 76f 71f
12:36pm 13 16 mph 1016mb 75f 71f
12:30pm 9 15 mph 1016.1mb 75f 71f
12:24pm 9 14 mph 1016.1mb 74f 71f
12:18pm 15 18 mph 1016.2mb 74f 70f
12:12pm 13 15 mph 1016.3mb 74f 70f
12:06pm 10 13 mph 1016.4mb 74f 70f
12:00pm 13 16 mph 1016.4mb 75f 70f
11:54am 13 15 mph 1016.5mb 75f 70f
11:48am 11 14 mph 1016.5mb 75f 69f
11:42am 11 14 mph 1016.5mb 75f 69f
11:36am 13 16 mph 1016.7mb 75f 69f
11:30am 13 16 mph 1016.7mb 74f 69f
11:24am 13 15 mph 1016.9mb 74f 69f
11:18am 11 14 mph 1016.9mb 75f 69f
11:12am 11 17 mph 1016.9mb 74f 69f
11:06am 11 15 mph 1017mb 74f 69f
11:00am 11 13 mph 1017mb 74f 69f
10:54am 10 13 mph 1017mb 74f 69f
10:48am 9 11 mph 1016.9mb 74f 68f
10:42am 8 13 mph 1017mb 74f 69f
10:36am 9 13 mph 1017mb 75f 68f
10:30am 9 11 mph 1017mb 74f 68f
10:24am 11 14 mph 1017mb 74f 68f
10:18am 8 11 mph 1017mb 74f 68f
10:12am 9 13 mph 1017mb 74f 68f
10:06am 8 11 mph 1017mb 74f 68f
10:00am 8 9 mph 1016.9mb 74f 67f
9:54am 7 9 mph 1016.8mb 74f 67f
9:48am 8 10 mph 1016.8mb 74f -
9:42am 8 10 mph 1016.7mb 74f -
9:36am 8 9 mph 1016.7mb 74f -
9:30am 9 11 mph 1016.7mb 74f 67f
9:24am 9 11 mph 1016.7mb 74f 66f
9:18am 8 9 mph 1016.7mb 74f 66f
9:12am 9 10 mph 1016.7mb 74f 66f
9:06am 8 10 mph 1016.8mb 75f 66f
9:00am 10 11 mph 1016.8mb 75f 66f
8:54am 8 10 mph 1016.8mb 75f 66f
8:48am 9 10 mph - - -
8:42am 8 10 mph - - -
8:36am 8 9 mph - - -
8:30am 9 11 mph 1016.6mb 75f 65f
8:24am 9 11 mph 1016.6mb 75f 65f
8:18am 9 11 mph 1016.5mb 75f 66f
8:12am 8 10 mph 1016.5mb 75f 66f
8:06am 8 10 mph 1016.4mb 75f 65f
8:00am 10
mph
1016.4mb 75f 65f
7:54am 8 9 mph 1016.3mb 74f 65f
7:48am 8 10 mph 1016.2mb 75f 65f
7:42am 9 10 mph 1016.2mb 75f 65f
7:36am 8 9 mph 1016.1mb 75f 65f
7:30am 7 10 mph 1016.1mb 75f 65f
7:24am 7 9 mph 1016.1mb 75f 64f
7:18am 7 9 mph 1016mb 75f 64f
7:12am 6 8 mph 1015.7mb 75f 64f
7:06am 7 9 mph 1015.6mb 75f 64f
7:00am 7 13 mph 1015.6mb 75f 64f
6:54am 9 13 mph 1015.8mb 75f 64f
6:48am 9 13 mph 1015.8mb 75f 64f
6:42am 11 13 mph 1015.7mb 75f 64f
6:36am 10 16 mph 1015.7mb 75f 64f
6:30am 13 17 mph 1015.5mb 75f 64f
6:24am 13 16 mph 1015.5mb 75f 64f
6:18am 11 14 mph 1015.5mb 75f 65f
6:12am 10 14 mph 1015.6mb 75f 64f
6:06am 11 15 mph 1015.5mb 75f 65f
6:00am 11 14 mph 1015.5mb 75f 64f
5:48am 9 11 mph 1014.9mb 75f 64f
5:42am 10 13 mph 1015mb 75f 64f
5:36am 10 14 mph 1015mb 75f 64f
5:30am 13 17 mph 1015mb 75f 64f
5:24am 13 16 mph 1015.1mb 74f 64f
5:18am 14 15 mph 1015mb 74f 64f
5:12am 13 16 mph 1015mb 74f 64f
5:06am 13 14 mph 1015mb 74f 64f
5:00am 11 15 mph 1014.9mb 74f 64f
4:54am 13 17 mph 1014.9mb 74f 64f
4:48am 14 16 mph 1015mb 75f 64f
4:42am 13 17 mph 1015mb 75f 64f
4:36am 15 18 mph 1014.9mb 75f 65f
4:30am 15 17 mph 1014.8mb 75f 65f
4:24am 14 16 mph 1014.8mb 75f 65f
4:18am 14 15 mph 1014.7mb 75f 64f
4:12am 13 15 mph 1014.6mb 75f 64f
4:06am 14 15 mph 1014.6mb 75f 64f
4:00am 14 16 mph 1014.6mb 75f 65f
3:54am 13 17 mph 1014.7mb 75f 65f
3:48am 14 16 mph 1014.7mb 75f 65f
3:42am 13 16 mph 1014.7mb 75f 65f
3:36am 13 15 mph 1014.8mb 75f 65f
3:30am 13 16 mph 1014.8mb 75f 65f
3:24am 14 17 mph 1014.8mb 75f 65f
3:18am 14 15 mph 1014.9mb 75f 65f
3:12am 13 15 mph 1014.9mb 75f 65f
3:06am 13 15 mph 1014.9mb 75f 65f
3:00am 13 16 mph 1014.9mb 75f 65f
2:54am 14 17 mph 1015mb 75f 65f
2:48am 15 17 mph 1015.1mb 75f 66f
2:42am 14 18 mph 1015.1mb 75f 66f
2:36am 15 17 mph 1015.1mb 75f 66f
2:30am 13 16 mph 1015.2mb 75f 66f
2:24am 14 16 mph 1015.3mb 75f 66f
2:18am 13 16 mph 1015.3mb 76f 66f
2:12am 14 15 mph 1015.4mb 76f 66f
2:06am 13 17 mph 1015.4mb 76f 66f
2:00am 13 16 mph 1015.5mb 76f 66f
1:54am 14 16 mph 1015.5mb 76f 66f
1:48am 13 15 mph 1015.6mb 76f 67f
1:36am 13 15 mph 1015.7mb 75f 67f
1:30am 13 15 mph 1015.7mb 76f 67f
1:24am 13 16 mph 1015.7mb 76f 67f
1:18am 14 17 mph 1015.7mb 76f 67f
1:12am 13 17 mph 1015.7mb 76f 67f
1:06am 15 18 mph 1015.7mb 76f 67f
1:00am 15 16 mph 1015.7mb 76f 67f
12:54am 15 17 mph 1015.6mb 76f 67f
12:48am  -  mph 1015.7mb 76f 67f
12:42am  -  mph 1015.7mb 76f 67f
12:36am  -  mph 1015.7mb 76f 67f
12:30am 14 16 mph 1015.7mb 76f 67f
12:24am 14 16 mph 1015.7mb 76f 68f
12:18am 13 15 mph 1015.7mb 76f 67f
12:12am 13 16 mph 1015.6mb 76f 68f
12:06am 14 15 mph 1015.6mb 76f 68f
12:00am 13 16 mph 1015.5mb 76f 68f
Tue 05/03 11:54pm 14 16 mph 1015.6mb 76f 68f
11:48pm 13 16 mph 1015.6mb 76f 68f
11:42pm 13 15 mph 1015.5mb 76f 68f
11:36pm 13 15 mph 1015.5mb 76f 68f
11:30pm 11 13 mph 1015.5mb 76f 68f
11:24pm 10 13 mph 1015.5mb 76f 68f
11:18pm 10 13 mph 1015.5mb 76f 69f
11:12pm 10 13 mph 1015.4mb 76f 69f
11:06pm 13 17 mph 1015.4mb 76f 69f
11:00pm 14 16 mph 1015.3mb 76f 69f
10:54pm 14 17 mph 1015.4mb 76f 69f
10:48pm  -  mph 1015.3mb 76f 69f
10:42pm  -  mph 1015.3mb 76f 69f
10:36pm  -  mph 1015.2mb 76f 69f
10:30pm 15 18 mph 1015.2mb 76f 69f
10:24pm 13 17 mph 1015.2mb 76f 69f
10:18pm 15 18 mph 1015.2mb 76f 70f
10:12pm 11 16 mph 1015.2mb 76f 70f
10:06pm 11 14 mph 1015.1mb 76f 70f
10:00pm 11 14 mph 1015mb 76f 70f
9:54pm 13 16 mph 1014.9mb 76f 70f
9:48pm  -  mph 1014.9mb 76f 70f
9:42pm  -  mph 1014.8mb 76f 70f
9:36pm  -  mph 1014.7mb 76f 71f
9:30pm  -  mph 1014.6mb 76f 71f
9:24pm  -  mph 1014.6mb 76f 71f
9:18pm  -  mph 1014.5mb 76f 71f
9:12pm  -  mph 1014.4mb 76f 71f
9:06pm  -  mph 1014.2mb 76f 71f
9:00pm  -  mph 1014.1mb 76f 71f
8:54pm  -  mph 1014mb 76f 72f
8:48pm  -  mph 1013.9mb 76f -
8:42pm  -  mph 1013.8mb 76f -
8:36pm  -  mph 1013.7mb 76f -
8:30pm 10 13 mph 1013.7mb 76f 71f
8:24pm 13 15 mph 1013.6mb 76f 72f
8:18pm  -  mph 1013.6mb 76f 72f
8:12pm  -  mph 1013.5mb 76f 73f
8:06pm  -  mph 1013.4mb 76f 72f
8:00pm  -  mph 1013.3mb 76f 72f
7:54pm  -  mph 1013.2mb 76f 73f
7:48pm  -  mph 1013.2mb 76f 73f
7:42pm  -  mph 1013.2mb 76f 73f
7:36pm  -  mph 1013.1mb 76f 74f
7:30pm 14 16 mph 1013mb 76f -
7:24pm 13 14 mph 1013mb 76f -
7:18pm  -  mph 1012.9mb 76f 74f
7:12pm  -  mph 1012.9mb 76f 74f
7:06pm  -  mph 1012.8mb 76f 74f
7:00pm  -  mph 1012.8mb 76f -
6:54pm  -  mph 1012.8mb 76f -
6:48pm  -  mph 1012.7mb 76f -
6:42pm  -  mph 1012.7mb 76f -
6:36pm  -  mph 1012.7mb 76f -
6:30pm  -  mph 1012.6mb 76f -
6:24pm  -  mph 1012.6mb 77f -
6:18pm  -  mph 1012.6mb 77f 75f
6:12pm  -  mph 1012.6mb 77f 75f
6:06pm  -  mph 1012.5mb 77f 75f
6:00pm  -  mph 1012.5mb 76f 75f
5:54pm  -  mph 1012.5mb 76f 75f
5:48pm  -  mph 1012.5mb 76f 75f
5:42pm  -  mph 1012.5mb 76f 75f
5:36pm  -  mph 1012.4mb 76f 75f
5:30pm 11 15 mph 1012.4mb 76f 75f
5:24pm 11 16 mph 1012.4mb 76f 75f
5:18pm  -  mph 1012.4mb 76f 75f
5:12pm  -  mph 1012.5mb 77f 75f
5:06pm  -  mph 1012.5mb 77f 74f
5:00pm  -  mph 1012.6mb 77f 74f
4:54pm  -  mph 1012.7mb 77f 74f
4:48pm  -  mph 1012.7mb 76f 74f
4:42pm  -  mph 1012.7mb 76f 74f
4:36pm  -  mph 1012.7mb 76f 74f
4:30pm 10 14 mph 1012.8mb 76f 74f
4:24pm 8 14 mph 1012.8mb 76f 74f
4:18pm 11 14 mph 1012.9mb 76f 73f
4:12pm 9 13 mph 1013mb 76f 74f
4:06pm 10 15 mph 1013mb 76f 73f
4:00pm 13 14 mph 1013.1mb 76f 73f
3:54pm 8 14 mph 1013.1mb 76f 73f
3:48pm 9 15 mph 1013.1mb 76f 73f
3:42pm 9 14 mph 1013.1mb 76f 73f
3:36pm 10 15 mph 1013.2mb 76f 73f
3:30pm 13 15 mph 1013.2mb - -
3:24pm 10 14 mph 1013.3mb - -
3:18pm 8 14 mph 1013.3mb 76f 72f
3:12pm 11 14 mph 1013.4mb 76f 72f
3:06pm 9 14 mph 1013.5mb 76f 72f
3:00pm 8 13 mph 1013.6mb 76f 72f
2:54pm 8 13 mph 1013.7mb 76f 72f
2:48pm 8 13 mph 1013.8mb 76f 71f
2:42pm 8 11 mph 1014mb 76f 71f
2:36pm 9 15 mph 1014mb 76f 71f
2:30pm 9 14 mph 1014.1mb 76f 71f
2:24pm 11 15 mph 1014.2mb 76f 71f
2:18pm 11 14 mph 1014.3mb 76f 71f
2:12pm 11 15 mph 1014.3mb 76f 71f
2:06pm 11 16 mph 1014.3mb 75f 71f
2:00pm 10 15 mph 1014.4mb 75f 70f
1:54pm 10 15 mph 1014.4mb 75f 71f
1:48pm 13 17 mph 1014.6mb 75f 70f
1:42pm 11 15 mph 1014.5mb 75f 70f
1:36pm 10 14 mph 1014.5mb 75f 70f
1:30pm 10 14 mph 1014.7mb 75f 69f
1:24pm 10 13 mph 1014.8mb 75f 69f
1:18pm 9 10 mph 1014.9mb 75f 69f
1:12pm 8 13 mph 1014.9mb 75f 69f
1:06pm 9 14 mph 1015mb 75f 69f
1:00pm 9 13 mph 1015mb 75f 69f
12:54pm 10 13 mph 1015.1mb 75f 69f
12:48pm 9 13 mph 1015.1mb 75f 69f
12:42pm 8 13 mph 1015.2mb 75f 69f
12:36pm 7 9 mph 1015.3mb 75f 69f
12:30pm 6 10 mph 1015.3mb 75f 69f
12:24pm 8 10 mph 1015.4mb 75f 69f
12:18pm 8 9 mph 1015.5mb 75f 69f
12:12pm 6 8 mph 1015.6mb 75f 69f
12:06pm 7 10 mph 1015.7mb 75f 69f
12:00pm 5 9 mph 1015.7mb 75f 68f
11:54am 6 10 mph 1015.7mb 75f 68f
11:48am 8 13 mph 1015.7mb 75f 68f
11:42am 10 11 mph 1015.7mb 75f 68f
11:36am 7 14 mph 1015.7mb 75f 68f
11:30am 7 14 mph 1015.7mb 75f 68f
11:24am 8 13 mph 1015.8mb 75f 68f
11:18am 9 14 mph 1015.7mb 74f 68f
11:12am 9 14 mph 1015.8mb 74f 68f
11:06am 9 11 mph 1015.7mb 74f 68f
11:00am 9 15 mph 1015.7mb 74f 67f
10:54am 9 14 mph 1015.6mb 74f 68f
10:48am 11 15 mph 1015.7mb 74f 67f
10:42am 11 16 mph 1015.6mb 74f 67f
10:36am 14 16 mph 1015.7mb 75f 66f
10:30am 13 16 mph 1015.7mb 75f 66f
10:24am 14 16 mph 1015.6mb 74f 66f
10:18am 15 16 mph 1015.7mb 74f 66f
10:12am 13 16 mph 1015.7mb 74f 66f
10:06am 14 16 mph 1015.7mb 74f 66f
10:00am 13 17 mph 1015.6mb 74f 67f
9:54am 16 18 mph 1015.5mb 74f 66f
9:48am 14 18 mph 1015.4mb - -
9:42am 14 18 mph 1015.3mb - -
9:36am 17 18 mph 1015.4mb - -
9:30am 15 18 mph 1015.4mb 74f 65f
9:24am 14 17 mph 1015.5mb 74f 65f
9:18am 14 18 mph 1015.6mb 74f 65f
9:12am 16 17 mph 1015.6mb 74f 65f
9:06am 16 18 mph 1015.7mb 75f 65f
9:00am 15 18 mph 1015.7mb 75f 65f
8:54am 14 17 mph 1015.6mb 75f 65f
8:48am 16 18 mph 1015.5mb 75f 64f
8:42am 16 20 mph 1015.5mb 75f 65f
8:36am 16 18 mph 1015.5mb 75f 65f
8:30am 16 18 mph 1015.4mb 75f 65f
8:24am 17 20 mph 1015.3mb 75f 65f
8:18am 16 20 mph 1015.3mb 75f 65f
8:12am 16 18 mph 1015.1mb 75f 64f
8:06am 14 16 mph 1015.1mb 75f 65f
8:00am 15 17 mph 1015mb 75f 65f
7:54am 15 17 mph 1014.9mb 75f 65f
7:48am 15 17 mph 1015mb 75f 64f
7:42am 15 18 mph 1014.9mb 75f 65f
7:36am 16 18 mph 1014.8mb 75f 65f
7:30am 15 17 mph 1014.8mb 75f 65f
7:24am 15 18 mph 1014.7mb 75f 65f
7:18am 13 17 mph 1014.6mb 75f 65f
7:12am 14 18 mph 1014.6mb 75f 65f
7:06am 16 20 mph 1014.5mb 75f 65f
7:00am 15 21 mph 1014.5mb 75f 66f
6:54am 14 18 mph 1014.4mb 75f 66f
6:48am 16 20 mph 1014.3mb 75f 66f
6:42am 18 21 mph 1014.2mb 75f 66f
6:36am 17 22 mph 1014.2mb 75f 66f
6:24am 17 21 mph 1014.1mb 75f 66f
6:18am 18 23 mph 1014mb 75f 66f
6:00am 17 21 mph 1013.9mb 75f 65f
5:54am 15 20 mph 1013.9mb 75f 65f
5:48am 17 22 mph 1013.9mb 75f 65f
5:42am 16 22 mph 1013.8mb 75f 65f
5:36am 15 21 mph 1013.8mb 75f 65f
5:30am 18 22 mph 1013.8mb 75f 65f
5:24am 18 22 mph 1013.8mb 75f 65f
5:18am 17 21 mph 1013.8mb 75f 66f
5:12am 15 22 mph 1013.8mb 75f 66f
5:06am 18 22 mph 1013.8mb 75f 66f
5:00am 14 22 mph 1013.8mb 75f 66f
4:54am 16 22 mph 1013.8mb 75f 66f
4:48am 20 23 mph 1013.8mb 75f 66f
4:42am 15 21 mph 1013.9mb 75f 66f
4:36am 18 22 mph 1013.9mb 76f 66f
4:30am 17 22 mph 1013.9mb 76f 66f
4:24am 15 22 mph 1013.9mb 76f 66f
4:18am 17 22 mph 1013.9mb 76f 66f
4:12am 15 22 mph 1013.9mb 76f 66f
4:06am 16 21 mph 1013.8mb 76f 66f
4:00am 18 23 mph 1013.8mb 76f 66f
3:54am 17 21 mph 1013.7mb 76f 66f
3:48am 15 23 mph 1013.8mb 76f 66f
3:42am 17 22 mph 1013.8mb 76f 66f
3:36am 14 21 mph 1013.8mb 76f 66f
3:30am 16 24 mph 1013.8mb 76f 66f
3:24am 17 22 mph 1013.8mb 76f 66f
3:18am 20 25 mph 1013.8mb 76f 65f
3:12am 22 25 mph 1013.8mb 76f 65f
3:06am 18 24 mph 1013.7mb 76f 66f
3:00am 14 22 mph 1013.8mb 76f 67f
2:54am 16 20 mph 1013.7mb 76f 67f
2:48am 17 21 mph 1013.7mb 76f 67f
2:42am 14 20 mph 1013.7mb 76f 67f
2:36am 14 21 mph 1013.7mb 76f 67f
2:30am 15 22 mph 1013.8mb 76f 67f
2:24am 17 23 mph 1013.9mb 76f 67f
2:18am 17 22 mph 1013.9mb 76f 67f
2:12am 18 22 mph 1013.8mb 76f 67f
2:06am 18 22 mph 1013.9mb 76f 67f
2:00am 20 24 mph 1014.1mb 76f 67f
1:54am 18 21 mph 1014.2mb 76f 68f
1:48am 16 20 mph 1014.2mb 76f 67f
1:42am 15 18 mph 1014.3mb 76f 67f
1:36am 15 18 mph 1014.4mb 76f 67f
1:30am 14 16 mph 1014.5mb 76f 67f
1:24am 14 17 mph 1014.6mb 76f 67f
1:18am 15 17 mph 1014.6mb 76f 68f
1:12am 14 16 mph 1014.7mb 76f 68f
1:06am 15 17 mph 1014.6mb 76f 68f
1:00am 15 18 mph 1014.6mb 76f 68f
12:54am 14 17 mph 1014.6mb 76f 68f
12:48am 13 17 mph 1014.7mb 76f 68f
12:42am 16 20 mph 1014.7mb 76f 67f
12:36am 14 18 mph 1014.7mb 76f 67f
12:30am 16 20 mph 1014.7mb 76f 67f
12:24am 17 21 mph 1014.6mb 76f 68f
12:18am 13 18 mph 1014.7mb 76f 68f
12:12am 17 22 mph 1014.7mb 76f 68f
12:06am 18 21 mph 1014.7mb 76f 69f
12:00am 18 22 mph 1014.8mb 76f 69f
Mon 05/02 11:54pm 18 23 mph 1014.8mb 76f 69f
11:48pm 20 23 mph 1014.8mb 76f 69f
11:42pm 20 23 mph 1014.6mb 76f 69f
11:36pm 15 20 mph 1014.6mb 76f 69f
11:30pm 15 18 mph 1014.7mb 76f 69f
11:24pm 15 17 mph 1014.7mb 76f 69f
11:18pm 15 20 mph 1014.8mb 76f 69f
11:12pm 15 17 mph 1014.9mb 76f 69f
11:06pm 14 16 mph 1014.8mb 76f 69f
11:00pm 11 15 mph 1014.9mb 76f 69f
10:54pm 11 16 mph 1015.1mb 76f 69f
10:48pm 9 14 mph 1014.9mb 76f 69f
10:42pm 13 16 mph 1014.9mb 76f 69f
10:36pm 14 18 mph 1014.8mb 76f 69f
10:30pm 15 21 mph 1014.9mb 76f 69f
10:24pm 15 20 mph 1014.8mb 76f 69f
10:18pm 14 18 mph 1014.7mb 76f 69f
10:12pm 17 21 mph 1014.7mb 76f 69f
10:06pm 17 21 mph 1014.7mb 76f 69f
10:00pm 17 20 mph 1014.6mb 76f 69f
9:54pm 16 20 mph 1014.5mb 76f 70f
9:48pm  -  mph 1014.6mb 76f -
9:42pm  -  mph 1014.6mb 76f -
9:36pm  -  mph 1014.5mb 76f -
9:30pm 15 17 mph 1014.3mb 76f 70f
9:24pm 15 17 mph 1014.2mb 76f 70f
9:18pm  -  mph 1014.2mb 76f 70f
9:12pm  -  mph 1014.2mb 76f 70f
9:06pm  -  mph 1014.2mb 76f 70f
9:00pm  -  mph 1014.2mb 76f 71f
8:54pm  -  mph 1014.1mb 76f 71f
8:48pm 13 15 mph 1013.9mb 76f -
8:42pm 13 15 mph 1013.7mb 76f -
8:36pm 11 13 mph 1013.7mb 76f -
8:30pm 10 11 mph 1013.7mb 76f -
8:24pm 11 13 mph 1013.7mb 76f -
8:18pm  -  mph 1013.6mb 76f 72f
8:12pm  -  mph 1013.5mb 76f 72f
8:06pm  -  mph 1013.5mb 76f 72f
8:00pm  -  mph 1013.5mb 76f 72f
7:54pm  -  mph 1013.3mb 76f 72f
7:48pm 10 11 mph 1013.3mb 76f -
7:42pm 10 11 mph 1013.2mb 76f -
7:36pm 8 10 mph 1013.2mb 76f -
7:30pm 9 10 mph 1013.3mb 76f 73f
7:24pm 8 10 mph 1013.2mb 77f 73f
7:18pm  -  mph 1013.1mb 77f 73f
7:12pm  -  mph 1013mb 77f 73f
7:06pm  -  mph 1012.9mb 77f 73f
7:00pm  -  mph 1012.9mb 77f 73f
6:54pm  -  mph 1012.9mb 77f 73f
6:48pm  -  mph 1012.7mb - -
6:42pm  -  mph 1012.6mb - -
6:36pm  -  mph 1012.6mb - -
6:30pm  -  mph - 77f -
6:24pm  -  mph - 77f -
6:18pm 13 14 mph 1012.3mb 77f -
6:12pm 11 14 mph 1012.4mb 77f -
6:06pm 11 15 mph 1012.4mb 77f -
6:00pm 14 16 mph 1012.5mb 77f 71f
5:54pm 14 15 mph 1012.5mb 77f 72f
5:48pm  -  mph 1012.4mb - -
5:42pm  -  mph 1012.5mb - -
5:36pm  -  mph 1012.5mb - -
5:30pm  -  mph 1012.4mb 77f -
5:24pm  -  mph 1012.3mb 77f -
5:18pm  -  mph 1012.3mb 77f 72f
5:12pm  -  mph 1012.2mb 77f 72f
5:06pm  -  mph 1012.2mb 77f 72f
5:00pm  -  mph 1012.3mb 77f 72f
4:54pm  -  mph 1012.5mb 77f 72f
4:48pm  -  mph 1012.5mb 77f -
4:42pm  -  mph 1012.5mb 77f -
4:36pm  -  mph 1012.4mb 77f -
4:30pm 8 11 mph 1012.3mb 77f 73f
4:24pm 10 13 mph 1012.4mb 77f 73f
4:18pm 10 13 mph 1012.5mb 77f 73f
4:12pm 13 14 mph 1012.6mb 77f 73f
4:06pm 13 15 mph 1012.7mb 77f 72f
4:00pm 14 16 mph 1012.7mb 77f 72f
3:54pm 15 17 mph 1012.9mb 77f 72f
3:48pm 16 17 mph 1012.9mb 77f 72f
3:42pm 15 16 mph 1012.8mb 77f 73f
3:36pm 11 14 mph 1012.6mb 77f 73f
3:30pm 11 13 mph 1012.7mb 77f 73f
3:24pm 10 11 mph 1012.8mb 77f 73f
3:18pm 9 11 mph 1013mb 77f 73f
3:12pm 9 13 mph 1013.1mb 77f 73f
3:06pm 13 14 mph 1013.2mb 77f 73f
3:00pm 9 13 mph 1013.2mb 77f 74f
2:54pm 9 10 mph 1013.2mb 77f 75f
2:48pm 8 9 mph 1013.2mb 77f 75f
2:42pm 7 10 mph 1013.2mb 77f 75f
2:36pm 8 10 mph 1013.3mb 77f 75f
2:30pm 7 9 mph 1013.1mb 77f 75f
2:24pm 7 10 mph 1013.2mb 77f 74f
2:18pm 8 10 mph 1013.3mb 77f 74f
2:12pm 8 10 mph 1013.5mb 77f 74f
2:06pm 8 9 mph 1013.6mb 76f 74f
2:00pm 8 10 mph 1013.9mb 76f 74f
1:54pm 8 9 mph 1014.1mb 76f 74f
1:48pm 7 10 mph 1014.3mb 76f 74f
1:42pm 9 13 mph 1014.2mb 76f 73f
1:36pm 10 13 mph 1014.2mb 76f 73f
1:30pm 9 10 mph 1014.1mb 76f 73f
1:24pm 9
mph
1014.1mb 76f 73f
1:18pm 7 9 mph 1014mb 76f 74f
1:12pm 8 9 mph 1014mb 76f 73f
1:06pm 8 9 mph 1014.1mb 76f 73f
1:00pm 7 10 mph 1014.2mb 76f 73f
12:54pm 9 13 mph 1014.2mb 76f 73f
12:48pm 10 11 mph 1014.2mb 76f 73f
12:42pm 10 13 mph 1014.5mb 76f 73f
12:36pm 9 13 mph 1014.5mb 76f 73f
12:30pm 11 14 mph 1014.6mb 76f 72f
12:24pm 10 13 mph 1014.6mb 76f 73f
12:18pm 10 11 mph 1014.8mb 76f 73f
12:12pm 11 13 mph 1014.8mb 76f 72f
12:06pm 9 11 mph 1014.7mb 76f 72f
12:00pm 10 13 mph 1014.7mb 76f 72f
11:54am 8 9 mph 1014.6mb 76f 73f
11:48am 8 9 mph 1014.4mb 76f 73f
11:42am 7 8 mph 1014.3mb 76f 73f
11:36am 5 6 mph 1014.2mb 76f 73f
11:30am 5 6 mph 1014.3mb 76f 73f
11:24am 3 6 mph 1014.1mb 76f 73f
11:18am 3 7 mph 1013.9mb 76f 73f
11:12am 3 8 mph 1013.3mb 76f 74f
11:06am 7 9 mph 1013mb 76f 74f
11:00am 7 9 mph 1012.9mb 76f 74f
10:54am 8 13 mph 1012.7mb 76f 74f
10:48am 9 13 mph 1012.6mb 76f 73f
10:42am 10 17 mph 1012.5mb 76f 74f
10:36am 14 16 mph 1012.7mb 76f 74f
10:30am 10 14 mph 1013.1mb 76f 73f
10:24am 11 14 mph 1012.9mb 76f 73f
10:18am 11 14 mph 1013mb 76f 73f
10:12am 10 18 mph 1012.9mb 76f 73f
10:06am 15 18 mph 1012.6mb 76f 73f
10:00am 15 20 mph 1012.5mb 76f 73f
9:54am 16 21 mph 1012.8mb 76f 73f
9:48am 14 17 mph 1013.1mb 76f 73f
9:42am 13 16 mph 1012.6mb 76f 73f
9:36am 9 16 mph 1013.2mb 76f 73f
9:30am 13 15 mph 1012.6mb 76f 72f
9:24am 11 16 mph 1012.7mb 76f 72f
9:18am 6 13 mph 1013.3mb 76f 71f
9:12am 9 13 mph 1013.2mb 76f 71f
9:06am 8 10 mph 1013.4mb 76f 71f
9:00am 8 10 mph 1014.1mb 76f 71f
8:54am 9 17 mph 1013.8mb 76f 71f
8:48am 13 16 mph 1013.1mb 76f -
8:42am 13 17 mph 1013.5mb 76f -
8:36am 13 15 mph 1013.8mb 76f -
8:30am 11 13 mph 1013.6mb 76f 71f
8:24am 10 13 mph 1013.3mb 76f 71f
8:18am 11 17 mph 1013.1mb 76f 71f
8:12am 15 21 mph 1013.1mb 76f 71f
8:06am 18 21 mph 1013mb 76f 71f
8:00am 15 20 mph 1012.9mb 76f 72f
7:54am 18 23 mph 1013.1mb 77f 72f
7:48am 15 21 mph 1013.1mb 77f 72f
7:42am 18 25 mph 1013.3mb 77f 72f
7:36am 20 24 mph 1012.9mb 77f 72f
7:30am 11 17 mph 1013.1mb 77f 72f
7:24am 9 13 mph 1012.3mb 77f 71f
7:18am 9 16 mph 1012.7mb 77f 72f
7:12am 6 14 mph 1012mb 77f 71f
7:06am 5
mph
1012.4mb 77f 71f
7:00am 2 8 mph 1011.9mb 77f 71f
6:54am 7 10 mph 1011.3mb 77f 71f
6:48am 9 11 mph 1011.3mb 77f 71f
6:42am 9 13 mph 1011.5mb 77f 71f
6:36am 8 9 mph 1011.6mb 77f 71f
6:30am 9 10 mph 1011.6mb 77f 71f
6:24am 10 14 mph 1011.7mb 77f 71f
6:18am 9 14 mph 1011.6mb 76f 71f
6:12am 10 13 mph 1011.4mb 76f 71f
6:06am 9 11 mph 1011.8mb 76f 72f
6:00am 10 13 mph 1011.7mb 76f 72f
5:54am 10 11 mph 1011.4mb 76f 72f
5:48am 8 10 mph 1011.4mb 76f 73f
5:42am 5 11 mph 1011.5mb 76f 73f
5:36am 10 18 mph 1011mb 76f 73f
5:30am 11 16 mph 1010.4mb 76f 72f
5:24am 10 14 mph 1011.1mb 76f 72f
5:18am 13 15 mph 1011mb 76f 72f
5:12am 6 10 mph 1011.6mb 76f 73f
5:06am 8 10 mph 1011.6mb 76f 73f
5:00am 8 11 mph 1011.7mb 76f 73f
4:54am 9 11 mph 1011.5mb 76f 73f
4:48am 8 11 mph 1011.6mb 76f 73f
4:42am 8 10 mph 1011.8mb 76f 73f
4:36am 8 13 mph 1011.8mb 76f 73f
4:30am 11 15 mph 1011.2mb 76f 74f
4:24am 11 13 mph 1011.1mb 76f 74f
4:18am 7 9 mph 1011.8mb 76f 74f
4:12am 7 8 mph 1011.7mb 76f 74f
4:06am 5 6 mph 1011.8mb 76f 74f
4:00am 5 10 mph 1011.8mb 76f 74f
3:54am 7 13 mph 1011.4mb 76f 74f
3:48am 9 17 mph 1011.6mb 76f 73f
3:42am 11 13 mph 1011.4mb 76f 73f
3:36am 9
mph
1011.9mb 76f 73f
3:30am 6 15 mph 1011.7mb 76f 74f
3:24am 13 16 mph 1011mb 76f 74f
3:18am 8 9 mph 1011.1mb 76f 73f
3:12am 7 11 mph 1011.3mb 76f 73f
3:06am 9 11 mph 1011.2mb 76f 73f
3:00am 10 14 mph 1011.2mb 76f 74f
2:54am 13 18 mph 1011.4mb 76f 74f
2:48am 15 17 mph 1011.4mb 76f 75f
2:42am 11 16 mph 1011.5mb 76f 75f
2:36am 13 17 mph 1011.7mb 76f 75f
2:30am 16 18 mph 1011.6mb 76f 75f
2:24am 15 18 mph 1011.7mb 76f 75f
2:18am 14 18 mph 1011.8mb 76f 75f
2:12am 13 16 mph 1011.8mb 76f 75f
2:06am 13 17 mph 1012mb 76f 75f
2:00am 14 17 mph 1012.3mb 76f 75f
1:54am 14 17 mph 1012.4mb 76f 74f
1:48am 17 21 mph 1012.3mb - -
1:42am 13 17 mph 1012.2mb - -
1:36am 14 16 mph 1012.4mb - -
1:30am 14 15 mph 1012.5mb 76f 74f
1:24am 13 16 mph 1012.6mb 76f 74f
1:18am 13 17 mph 1012.5mb 76f 74f
1:12am 15 20 mph 1012.4mb 76f 74f